SWR12S LSZH-EDDL

Flight info

Callsign SWR12S
Flight time 0h 54m
Altitude 30000
Route VEBIT T10 TORPA DCT EDOPI DCT GIVOR DCT SORAL DCT IBERA DCT DIK/N0454F310 N853 ARCKY T853 NVO T857 BIKMU BIKMU1A
Aircraft A320/M-SDE3FGHIRWY/LB1

Departure

Time 2026-05-04 16:51
Airport Zürich Airport (LSZH)

Arrival

Time 2026-05-04 17:46
Airport Düsseldorf Airport (EDDL)
Time Latitude Longitude Altitude Speed Heading
2026-05-04 16:25 47.45409 8.55946 1407 ft 0 kts 185°
2026-05-04 16:41 47.45433 8.55951 1408 ft 4 kts 192°
2026-05-04 16:42 47.45494 8.55923 1411 ft 4 kts 110°
2026-05-04 16:43 47.45497 8.55907 1412 ft 1 kts 96°
2026-05-04 16:44 47.45497 8.55911 1412 ft 1 kts 96°
2026-05-04 16:45 47.45486 8.56062 1407 ft 12 kts 96°
2026-05-04 16:46 47.45616 8.56262 1413 ft 6 kts
2026-05-04 16:46 47.45790 8.56289 1416 ft 17 kts
2026-05-04 16:47 47.46026 8.56326 1414 ft 3 kts
2026-05-04 16:49 47.46033 8.56327 1413 ft 4 kts
2026-05-04 16:49 47.46141 8.56345 1413 ft 11 kts
2026-05-04 16:50 47.46221 8.56319 1414 ft 1 kts 316°
2026-05-04 16:50 47.46786 8.55544 1403 ft 120 kts 317°
2026-05-04 16:51 47.48413 8.53356 1909 ft 175 kts 318°
2026-05-04 16:51 47.49356 8.52169 2588 ft 180 kts 317°
2026-05-04 16:51 47.51556 8.50117 3613 ft 204 kts 328°
2026-05-04 16:52 47.53389 8.46711 4878 ft 225 kts 284°
2026-05-04 16:52 47.53464 8.44397 5656 ft 229 kts 258°
2026-05-04 16:53 47.52129 8.40117 7265 ft 230 kts 228°
2026-05-04 16:53 47.47435 8.37336 8964 ft 271 kts 191°
2026-05-04 16:54 47.45572 8.36746 9802 ft 276 kts 191°
2026-05-04 16:55 47.37906 8.31527 11555 ft 351 kts 236°
2026-05-04 16:55 47.35588 8.25097 13137 ft 357 kts 240°
2026-05-04 16:56 47.33265 8.18573 14577 ft 362 kts 240°
2026-05-04 16:56 47.29715 8.08582 16558 ft 370 kts 241°
2026-05-04 16:57 47.28540 8.05209 17232 ft 371 kts 244°
2026-05-04 16:57 47.27339 7.97824 18413 ft 381 kts 266°
2026-05-04 16:58 47.28270 7.86003 19930 ft 393 kts 275°
2026-05-04 16:58 47.28650 7.82006 20436 ft 396 kts 275°
2026-05-04 16:59 47.29416 7.73910 21426 ft 402 kts 275°
2026-05-04 17:00 47.31632 7.57486 23254 ft 418 kts 284°
2026-05-04 17:00 47.34330 7.45103 24391 ft 427 kts 283°
2026-05-04 17:01 47.36153 7.36710 25114 ft 432 kts 283°
2026-05-04 17:01 47.37990 7.28210 25839 ft 437 kts 283°
2026-05-04 17:02 47.39829 7.19617 26498 ft 441 kts 283°
2026-05-04 17:02 47.41406 7.10846 27137 ft 443 kts 278°
2026-05-04 17:03 47.42061 7.06392 27456 ft 446 kts 278°
2026-05-04 17:03 47.42710 7.01968 27758 ft 448 kts 278°
2026-05-04 17:03 47.44028 6.92917 28358 ft 452 kts 278°
2026-05-04 17:04 47.45353 6.83792 28944 ft 457 kts 278°
2026-05-04 17:04 47.47284 6.74814 29737 ft 466 kts 295°
2026-05-04 17:05 47.51595 6.67586 30057 ft 479 kts 321°
2026-05-04 17:05 47.57782 6.63896 30030 ft 488 kts 349°
2026-05-04 17:06 47.67905 6.61871 30026 ft 489 kts 350°
2026-05-04 17:07 47.76892 6.60061 30015 ft 489 kts 350°
2026-05-04 17:07 47.84728 6.58477 30018 ft 488 kts 350°
2026-05-04 17:08 47.94824 6.56406 30003 ft 489 kts 349°
2026-05-04 17:09 48.01547 6.54827 30000 ft 489 kts 348°
2026-05-04 17:09 48.08257 6.53142 30002 ft 489 kts 348°
2026-05-04 17:10 48.25035 6.49096 29990 ft 489 kts 348°
2026-05-04 17:11 48.31755 6.47470 29993 ft 488 kts 348°
2026-05-04 17:12 48.41805 6.45028 29993 ft 489 kts 349°
2026-05-04 17:13 48.58645 6.40912 29976 ft 492 kts 348°
2026-05-04 17:14 48.68856 6.39433 29979 ft 495 kts
2026-05-04 17:14 48.72295 6.39800 29980 ft 495 kts
2026-05-04 17:15 48.82619 6.40858 29980 ft 496 kts
2026-05-04 17:16 48.96385 6.42240 29982 ft 496 kts
2026-05-04 17:17 49.10179 6.43389 29980 ft 495 kts 354°
2026-05-04 17:17 49.20179 6.40135 29979 ft 490 kts 341°
2026-05-04 17:18 49.23476 6.38785 29973 ft 490 kts 341°
2026-05-04 17:19 49.36595 6.33404 29984 ft 489 kts 341°
2026-05-04 17:20 49.49738 6.27951 29978 ft 489 kts 341°
2026-05-04 17:20 49.59604 6.23890 29984 ft 490 kts 342°
2026-05-04 17:21 49.72829 6.18485 29987 ft 492 kts 342°
2026-05-04 17:22 49.79446 6.15749 29980 ft 492 kts 341°
2026-05-04 17:23 49.89559 6.12969 29988 ft 497 kts 358°
2026-05-04 17:23 49.93026 6.13001 29982 ft 497 kts 358°
2026-05-04 17:24 50.03408 6.13082 29980 ft 497 kts 358°
2026-05-04 17:25 50.17226 6.13153 29973 ft 496 kts 358°
2026-05-04 17:26 50.30905 6.15422 29973 ft 499 kts 19°
2026-05-04 17:26 50.39888 6.23449 29554 ft 499 kts 34°
2026-05-04 17:27 50.45692 6.29423 29003 ft 499 kts 34°
2026-05-04 17:27 50.51497 6.35357 28474 ft 497 kts 32°
2026-05-04 17:28 50.57451 6.40890 27928 ft 497 kts 29°
2026-05-04 17:29 50.66526 6.48988 24972 ft 505 kts 30°
2026-05-04 17:29 50.75460 6.57283 22484 ft 486 kts 31°
2026-05-04 17:30 50.84363 6.63960 20283 ft 465 kts 12°
2026-05-04 17:31 50.90689 6.65446 18904 ft 454 kts
2026-05-04 17:31 50.98878 6.67206 17196 ft 437 kts
2026-05-04 17:32 51.04871 6.67739 16048 ft 422 kts 356°
2026-05-04 17:33 51.12692 6.72371 14485 ft 404 kts 43°
2026-05-04 17:33 51.14753 6.75331 14002 ft 399 kts 43°
2026-05-04 17:34 51.20694 6.83934 12391 ft 360 kts 43°
2026-05-04 17:34 51.22475 6.86513 12031 ft 340 kts 43°
2026-05-04 17:35 51.27331 6.93515 11940 ft 284 kts 43°
2026-05-04 17:35 51.30164 6.97580 11201 ft 271 kts 43°
2026-05-04 17:35 51.31562 6.99588 10759 ft 270 kts 43°
2026-05-04 17:36 51.32956 7.01592 10424 ft 267 kts 44°
2026-05-04 17:36 51.34104 7.03863 10019 ft 260 kts 67°
2026-05-04 17:36 51.34795 7.06528 9459 ft 259 kts 72°
2026-05-04 17:36 51.35396 7.09229 8892 ft 258 kts 73°
2026-05-04 17:37 51.35985 7.11928 8334 ft 256 kts 73°
2026-05-04 17:37 51.36544 7.14594 7856 ft 252 kts 73°
2026-05-04 17:37 51.37094 7.17246 7439 ft 249 kts 73°
2026-05-04 17:37 51.37641 7.19870 6975 ft 249 kts 72°
2026-05-04 17:38 51.38537 7.22227 6528 ft 252 kts 43°
2026-05-04 17:38 51.40051 7.23558 6104 ft 249 kts 12°
2026-05-04 17:38 51.41761 7.23989 5612 ft 249 kts
2026-05-04 17:38 51.43488 7.24198 5151 ft 247 kts 355°
2026-05-04 17:39 51.46132 7.21444 4252 ft 230 kts 290°
2026-05-04 17:39 51.46584 7.19019 4008 ft 229 kts 279°
2026-05-04 17:39 51.46703 7.16471 4002 ft 230 kts 260°
2026-05-04 17:40 51.46251 7.14049 4005 ft 227 kts 239°
2026-05-04 17:40 51.45356 7.11985 4003 ft 226 kts 231°
2026-05-04 17:40 51.44409 7.09972 4005 ft 226 kts 231°
2026-05-04 17:40 51.43463 7.07957 4005 ft 225 kts 231°
2026-05-04 17:41 51.42551 7.06016 3995 ft 211 kts 231°
2026-05-04 17:41 51.41677 7.04161 3996 ft 206 kts 231°
2026-05-04 17:41 51.40814 7.02330 3847 ft 206 kts 231°
2026-05-04 17:41 51.39943 7.00483 3590 ft 208 kts 231°
2026-05-04 17:42 51.39068 6.98630 3320 ft 207 kts 231°
2026-05-04 17:42 51.38205 6.96801 3041 ft 205 kts 231°
2026-05-04 17:42 51.37347 6.94984 2779 ft 205 kts 231°
2026-05-04 17:42 51.36486 6.93164 2498 ft 203 kts 230°
2026-05-04 17:43 51.35649 6.91394 2210 ft 194 kts 231°
2026-05-04 17:43 51.34865 6.89735 1999 ft 185 kts 230°
2026-05-04 17:43 51.34097 6.88115 1747 ft 177 kts 232°
2026-05-04 17:43 51.33377 6.86593 1518 ft 169 kts 232°
2026-05-04 17:44 51.32683 6.85132 1261 ft 161 kts 231°
2026-05-04 17:44 51.32027 6.83745 1020 ft 150 kts 229°
2026-05-04 17:44 51.31430 6.82438 736 ft 142 kts 230°
2026-05-04 17:44 51.30851 6.81200 565 ft 139 kts 229°
2026-05-04 17:45 51.30255 6.79998 445 ft 138 kts 231°
2026-05-04 17:45 51.29677 6.78794 273 ft 138 kts 229°
2026-05-04 17:45 51.29099 6.77592 148 ft 131 kts 229°
2026-05-04 17:45 51.28598 6.76584 128 ft 94 kts 233°
2026-05-04 17:46 51.28359 6.76089 127 ft 21 kts 220°
2026-05-04 17:46 51.28258 6.76043 125 ft 14 kts 168°
2026-05-04 17:46 51.28236 6.76053 128 ft 0 kts 162°
2026-05-04 17:46 51.28234 6.76054 128 ft 2 kts 162°
2026-05-04 17:47 51.28222 6.76061 124 ft 3 kts 159°
2026-05-04 17:47 51.28197 6.76087 126 ft 6 kts 136°
2026-05-04 17:47 51.28195 6.76161 127 ft 7 kts 72°
2026-05-04 17:47 51.28195 6.76229 129 ft 5 kts 112°
2026-05-04 17:48 51.28175 6.76265 127 ft 5 kts 137°
2026-05-04 17:48 51.28135 6.76314 129 ft 9 kts 162°
2026-05-04 17:48 51.28078 6.76291 128 ft 3 kts 184°
2026-05-04 17:48 51.28062 6.76289 128 ft 0 kts 184°